SCOUT A DEB, 2989

Orbit data source: Space-Track

SCOUT A DEB, 2989 is space debris in LEO originally from a launch on Fri, 28 Jan 1966 UTC launched from the Air Force Western Test Range (AFWTR). Debris objects in space refer to the collection of defunct objects orbiting the Earth. Examples of debris include non-operational satellites, rocket bodies, and fragments generated from explosions, collisions, or faulty payload assembly.

Loading next visibility...
Identifier
2989, 1966-005F
Orbit
LEO
Country
Flag of USUS
Related business
Manufacturer
Unknown
Mission
Spacecraft
Bus & Motor
Unknown
Mass
Unknown
Launch date (UTC)
1966-01-28 (60 years ago)
Launch vehicle
Unknown
Launch site
Air Force Western Test Range (AFWTR)
Object type
Payload
Rocket body
Debris
Shape & HBR
Unknown shape, 0.1 m
Radar Cross Section
Small (<0.1 m²)

Expand to show TLE details & history
Last TLE update: 4 days ago

TLE from 4 days ago
0 SCOUT A DEB
1  2989U 66005F   26031.24588568  .00000828  00000-0  52397-3 0  9990
2  2989  89.6652 289.3824 0107884 324.3404  35.0600 14.00510535977832
Epoch: 2026-01-31T05:54Z
TLE epoch observation values (Epoch: 2026-01-31T05:54:04.522Z)
Latitude
-0.00005°
Longitude
70.39092°
Altitude
831.123 km
Speed
7.47 km/s
True Right ascension
19h 17m 31s
True Declination
0° 00' 00"
Sunlit
Object was in daylight at epoch
Visualization orbit readout
Latitude
Unknown
Longitude
Unknown
Altitude
Unknown
Speed
Unknown
Apparent Right ascension
Unknown
Apparent Declination
Unknown
Sunlit
N/A
Visualization observer readout
Local Sidereal Time
06:49:27
Azimuth
Unknown
Elevation
Unknown
Doppler factor
Unknown
Orbital elements
Apogee altitude
967.405 km
Perigee altitude
810.603 km
Semi-major axis
7,267.141 km
Eccentricity
0.01079
Inclination
89.6652°
RAAN
289.3824°
Arg. of periapsis
324.3404°
True anomaly
35.77805°
Mean anomaly
35.06°
Eccentric anomaly
35.41823°
Mean motion
3.50347 °/min
Orbital period
102.76 mins
BSTAR
0.00052397
Loading maneuver chart data...
Computing Atmospheric mass density...
Loading historical data...
Loading historical data...
Loading historical data...
Loading historical data...
Loading historical data...
Loading historical data...
Loading historical data...

Documentation

Showing up to 5 results
|